FENGYUN 1C DEB, 41832

Orbit data source: Space-Track

FENGYUN 1C DEB, 41832 is space debris in SSO originally from a launch on Mon, 10 May 1999 UTC launched from the Taiyaun Space Center, China (TSC). Fengyun 1C debris stems from the Chinese weather satellite Fengyun-1C, which was intentionally destroyed by a Chinese anti-satellite missile in 2007. This event dramatically increased the amount of space debris, with thousands of trackable fragments posing hazards to satellites and human spaceflight. The Fengyun 1C debris cloud has become a focal point in discussions about space sustainability and the need for international regulations to prevent the creation of new debris.

Loading next visibility...
Identifier
41832, 1999-025EYK
Orbit
SSO
Last TLE update
1 day ago
Origin
Manufacturer
Unknown
Mission
Spacecraft
Bus & Motor
Unknown
Mass
Unknown
Launch date (UTC)
1999-05-10 (26 years ago)
Launch vehicle
Unknown
Launch site
Taiyaun Space Center, China (TSC)
Object type
Payload
Rocket body
Debris
Shape & HBR
Unknown
Radar Cross Section
Small (<0.1 m²)

Expand to show TLE details & history

TLE from 1 day ago
0 FENGYUN 1C DEB
1 41832U 99025EYK 25181.10913026  .00001695  00000-0  76210-3 0  9992
2 41832  98.7403 246.3223 0054138 348.0490  11.9399 14.22908349449946
Epoch: 2025-06-30T02:37Z
TLE epoch observation values (Epoch: 2025-06-30T02:37:08.854Z)
Latitude
-0.00009°
Longitude
-71.38824°
Altitude
780.35 km
Speed
7.483 km/s
True Right ascension
16h 25m 17s
True Declination
0° 00' 00"
Sunlit
Object was in full shadow at epoch
Visualization orbit readout
Latitude
-79.61284°
Longitude
53.23679°
Altitude
836.825 km
Speed
7.437 km/s
Apparent Right ascension
05h 31m 01s
Apparent Declination
-65° 12' 53"
Sunlit
Object is in daylight
Visualization observer readout
Local Sidereal Time
18:29:38
Azimuth
166.33° S
Elevation
-63.333°
Doppler factor
1
Orbital elements
Apogee altitude
851.619 km
Perigee altitude
773.76 km
Semi-major axis
7,190.827 km
Eccentricity
0.00541
Inclination
98.7403°
RAAN
246.3223°
Arg. of periapsis
348.049°
True anomaly
Unknown
Mean anomaly
11.9399°
Eccentric anomaly
Unknown
Mean motion
3.55938 °/min
Orbital period
101.14 mins
BSTAR
0.0007621
Loading maneuver chart data...
Loading SW <> Apogee altitude chart data...
Loading historical data...
Loading historical data...
Loading historical data...
Loading historical data...
Loading historical data...
Loading historical data...
Loading historical data...

FENGYUN 1C DEB Visibility forecast

Observer location: undefined°, undefined°

Span
Click to sort rows by Start time (UTC) header in descending order
Start Az.
Max El. time (UTC)
Max El. Az.
Max El.
End time (UTC)
End Az.
8 mins2025-07-01 16:20:46.794Z43.458° NE2025-07-01 16:24:46.794Z99.967° ESE25.035°2025-07-01 16:28:46.794Z150.956° SSE
8 mins2025-07-01 18:00:46.794Z350.739° N2025-07-01 18:04:46.794Z285.284° WNW31.499°2025-07-01 18:08:46.794Z229.075° WSW
8 mins2025-07-02 03:41:46.794Z132.307° SE2025-07-02 03:45:46.794Z60.319° ENE32.95°2025-07-02 03:49:46.794Z3.6° NNE
6 mins2025-07-02 05:22:46.794Z224.642° SW2025-07-02 05:25:46.794Z269.087° W21.441°2025-07-02 05:28:46.794Z310.358° NW
|